NAKANO
         **** Don't distribute anyone except personal use only ****
                (C) Copyright 2009 OAA/ComputingSection
write mail from CFAD0::NAKANO on 2009-05-12 03:07:22(JST).
 
    C/2007 D1 (LINEAR)
Epoch 2007 June 29.0 TT = JDT 2454280.5  
T 2007 June 19.49612 TT                                 Nakano
q   8.7936390            (2000.0)            P               Q
z  -0.0002100      Peri.  340.16112     -0.88996077     -0.44438475
 +/-0.0000027      Node   171.09852     +0.45347673     -0.83858473
e   1.0018470      Incl.   41.45031     -0.04825637     +0.31511560
From 277 observations 2007 Feb. 17-2008 May 29, mean residual 0".66.
   (1/a)org.= +0.000042, (1/a)fut.= +0.000737 (+/-0.000003), Q= 7.
   The comet has passed 1.88 AU from Saturn on 2008 July 28 UT.
NAKANO
         **** Don't distribute anyone except personal use only ****
                (C) Copyright 2009 OAA/ComputingSection
write mail from CFAD0::NAKANO on 2009-01-06 06:55:26(JST).
 


    C/2007 D1 (LINEAR)

Epoch 2007 June 29.0 TT = JDT 2454280.5  

T 2007 June 19.46080 TT                                 Nakano

q   8.7936334            (2000.0)            P               Q

z  -0.0002101      Peri.  340.15925     -0.88994628     -0.44441380

 +/-0.0000033      Node   171.09853     +0.45350409     -0.83857004

e   1.0018474      Incl.   41.45029     -0.04826658     +0.31511373

From 241 observations 2007 Feb. 17-2008 Mar. 17, mean residual 0".65.

   (1/a)org.= +0.000042, (1/a)fut.= +0.000737 (+/-0.000003), Q= 7.
                     



NAKANO

         **** Don't distribute anyone except personal use only ****

                (C) Copyright 2008 OAA/ComputingSection

write mail from CFAD0::NAKANO on 2008-03-30 06:44:05(JST).

 





    C/2007 D1 (LINEAR)

Epoch 2007 June 29.0 TT = JDT 2454280.5  

T 2007 June 19.33887 TT                                 Nakano

q   8.7936067            (2000.0)            P               Q

z  -0.0002090      Peri.  340.15227     -0.88989629     -0.44451613

 +/-0.0000044      Node   171.09921     +0.45359821     -0.83852446

e   1.0018376      Incl.   41.44932     -0.04830376     +0.31509069

From 201 observations 2007 Feb. 17-Nov. 18, mean residual 0".64.

   (1/a)org.= +0.000043, (1/a)fut.= +0.000738 (+/-0.000004), Q= 7.



NAKANO

         **** Don't distribute anyone except personal use only ****

                (C) Copyright 2007 OAA/ComputingSection

write mail from CFAD0::NAKANO on 2007-11-30 09:05:11(JST).

 



◎C/2007 D1の軌道と予報位置



 上尾の門田健一氏は,6月23日の観測以来,途絶えていたこの彗星の観測に

11月17日と18日に成功しました.氏のCCD全光度は,それぞれ,17.9等と17.8等

でした.



    C/2007 D1 (LINEAR)

Epoch 2007 June 29.0 TT = JDT 2454280.5  

T 2007 June 19.33887 TT                                 Nakano

q   8.7936067            (2000.0)            P               Q

z  -0.0002090      Peri.  340.15227     -0.88989629     -0.44451613

 +/-0.0000044      Node   171.09921     +0.45359821     -0.83852446

e   1.0018376      Incl.   41.44932     -0.04830376     +0.31509069

From 201 observations 2007 Feb. 17-Nov. 18, mean residual 0".64.

   (1/a)org.= +0.000043, (1/a)fut.= +0.000738 (+/-0.000004), Q= 7.

 

Date/        TT  R.A.(2000) Decl.     Delta   r     Daily motion  Mag.  Moon Age

              h    h  m       。  ,                      ,  / PA 。  m1      。

2007 Nov. 25 20  11 07.25  -02 16.9   9.056  8.842     4.1 /  95  17.9   89  .98

          26 20  11 07.53  -02 17.3   9.040  8.843     4.0 /  95  17.9   74  .93

          27 20  11 07.80  -02 17.7   9.025  8.843     4.0 /  95  17.9   60  .86

          28 20  11 08.06  -02 18.0   9.009  8.844     3.9 /  94  17.9   46  .77

          29 20  11 08.32  -02 18.3   8.994  8.845     3.8 /  94  17.9   33  .67

          30 20  11 08.57  -02 18.5   8.978  8.845     3.7 /  93  17.9   20  .57

     Dec.  1 20  11 08.81  -02 18.7   8.962  8.846     3.6 /  92  17.9    9  .47

           2 20  11 09.05  -02 18.9   8.947  8.847     3.5 /  92  17.9    8  .37

           3 20  11 09.28  -02 19.0   8.931  8.847     3.4 /  91  17.9   18  .28

           4 20  11 09.51  -02 19.0   8.915  8.848     3.3 /  90  17.9   29  .20

           5 20  11 09.73  -02 19.0   8.899  8.848     3.2 /  90  17.8   41  .13

           6 20  11 09.94  -02 19.0   8.883  8.849     3.1 /  89  17.8   53  .08

           7 20  11 10.14  -02 19.0   8.867  8.850     3.0 /  88  17.8   64  .03

           8 20  11 10.34  -02 18.8   8.851  8.850     2.9 /  87  17.8   76  .01

           9 20  11 10.54  -02 18.7   8.835  8.851     2.8 /  86  17.8   88  .00

          10 20  11 10.72  -02 18.5   8.819  8.852     2.7 /  85  17.8  100  .01

          11 20  11 10.90  -02 18.2   8.803  8.852     2.6 /  83  17.8  112  .04

          12 20  11 11.08  -02 17.9   8.787  8.853     2.5 /  82  17.8  125  .09

          13 20  11 11.24  -02 17.6   8.771  8.854     2.4 /  80  17.8  137  .16

          14 20  11 11.40  -02 17.2   8.755  8.854     2.3 /  79  17.8  150  .24

          15 20  11 11.56  -02 16.7   8.739  8.855     2.2 /  77  17.8  162  .33

          16 20  11 11.70  -02 16.2   8.723  8.856     2.2 /  75  17.8  174  .43

          17 20  11 11.84  -02 15.7   8.707  8.856     2.1 /  73  17.8  169  .54

          18 20  11 11.97  -02 15.1   8.691  8.857     2.0 /  71  17.8  155  .66

          19 20  11 12.10  -02 14.4   8.675  8.858     1.9 /  68  17.8  141  .76

          20 20  11 12.22  -02 13.7   8.660  8.859     1.8 /  66  17.8  127  .85

          21 20  11 12.33  -02 13.0   8.644  8.859     1.8 /  63  17.8  112  .93

          22 20  11 12.43  -02 12.1   8.628  8.860     1.7 /  60  17.8   97  .98

          23 20  11 12.53  -02 11.3   8.612  8.861     1.6 /  56  17.8   82 1.00

          24 20  11 12.62  -02 10.4   8.597  8.861     1.6 /  53  17.8   68  .99

          25 20  11 12.71  -02 09.4   8.581  8.862     1.5 /  49  17.8   53  .96

          26 20  11 12.79  -02 08.4   8.566  8.863     1.5 /  45  17.8   39  .90

          27 20  11 12.86  -02 07.3   8.550  8.863     1.5 /  40  17.8   26  .82

          28 20  11 12.92  -02 06.2   8.535  8.864     1.5 /  36  17.8   13  .74

          29 20  11 12.98  -02 05.0   8.520  8.865     1.4 /  31  17.8    5  .64

          30 20  11 13.03  -02 03.8   8.505  8.866     1.4 /  27  17.8   13  .55

          31 20  11 13.07  -02 02.5   8.490  8.866     1.4 /  22  17.8   25  .45

2008 Jan.  1 20  11 13.11  -02 01.2   8.475  8.867     1.5 /  17  17.7   37  .36

NAKANO

         **** Don't distribute anyone except personal use only ****

                (C) Copyright 2007 OAA/ComputingSection

write mail from CFAD0::NAKANO on 2007-11-25 04:29:04(JS

*** The comet will pass 1.88 AU from Saturn on 2008 July 28 ***



    C/2007 D1 (LINEAR)

Epoch 2007 June 29.0 TT = JDT 2454280.5  

T 2007 June 20.25068 TT                                 Nakano

q   8.7930816            (2000.0)            P               Q

z  -0.0002157      Peri.  340.20016     -0.89027787     -0.44375699

 +/-0.0000094      Node   171.10091     +0.45287713     -0.83892714

e   1.0018971      Incl.   41.44695     -0.04803760     +0.31508884

From 196 observations 2007 Feb. 17-June 23, mean residual 0".63.

   (1/a)org.= +0.000036, (1/a)fut.= +0.000731 (+/-0.000009), Q= 6.



NAKANO

         **** Don't distribute anyone except personal use only ****

                (C) Copyright 2007 OAA/ComputingSection

write mail from CFAD0::NAKANO on 2007-07-09 03:50:16(JST).

 

    C/2007 D1 (LINEAR)

Epoch 2007 June 29.0 TT = JDT 2454280.5  

T 2007 June 21.11363 TT                                 Nakano

q   8.7924290            (2000.0)            P               Q

z  -0.0002276      Peri.  340.24528     -0.89064055     -0.44303595

 +/-0.0000135      Node   171.10313     +0.45219015     -0.83931469

e   1.0020009      Incl.   41.44385     -0.04778582     +0.31507141

From 190 observations 2007 Feb. 17-2007 May 16, mean residual 0".63.

   (1/a)org.= +0.000025, (1/a)fut.= +0.000719 (+/-0.000013), Q= 5.



NAKANO

         **** Don't distribute anyone except personal use only ****

                (C) Copyright 2007 OAA/ComputingSection

write mail from CFAD0::NAKANO on 2007-06-06 06:36:40(JST).

 



    C/2007 D1 (LINEAR)

T 2007 June 8.33933 TT                                  Nakano

q   8.7966680            (2000.0)            P               Q

                   Peri.  339.55116     -0.88526922     -0.45370703

                   Node   171.11324     +0.46221108     -0.83392761

e   1.0            Incl.   41.42781     -0.05156863     +0.31418891

From 168 observations 2007 Feb. 17-Apr. 15.



NAKANO

         **** Don't distribute anyone except personal use only ****

                (C) Copyright 2007 OAA/ComputingSection

write mail from CFAD0::NAKANO on 2007-05-04 04:01:44(JST).



    C/2007 D1 (LINEAR)

T 2006 Dec. 16.37810 TT                                 Nakano

q   8.7071546            (2000.0)            P               Q

                   Peri.  329.66384     -0.79994671     -0.59301821

                   Node   171.86310     +0.59163358     -0.75388412

e   1.0            Incl.   40.39864     -0.10027447     +0.28282174

From 84 observations 2007 Feb. 17-27.



NAKANO

         **** Don't distribute anyone except personal use only ****

                (C) Copyright 2007 OAA/ComputingSection

write mail from CFAD0::NAKANO on 2007-03-05 06:22:02(JST).

 



    C/2007 D1 (LINEAR)

T 2006 Dec. 16.37810 TT                                 Nakano

q   8.7071546            (2000.0)            P               Q

                   Peri.  329.66384     -0.79994671     -0.59301821

                   Node   171.86310     +0.59163358     -0.75388412

e   1.0            Incl.   40.39864     -0.10027447     +0.28282174

From 84 observations 2007 Feb. 17-27.

NAKANO

         **** Don't distribute anyone except personal use only ****

                (C) Copyright 2007 OAA/ComputingSection

write mail from CFAD0::NAKANO on 2007-03-05 06:21:26(JST).

 







C/2007 D1の軌道と予報位置です

